Location: Buttermere
(51.3333°N, 1.5167°W)
Time: 01:35:52
(UTC+00:00)

Cosmos 2098 Rocket - Pass Details

Date: 18 September 2020
Orbit: 366 x 1185 km, 82.9° (Epoch: 30 October)

Event Time Altitude Azimuth Distance (km) Brightness Sun altitude
Rises 20:51:24 0° 350° (N) 4,084 7.9 -23.9°
Reaches altitude 10° 20:54:17 10° 355° (N) 3,086 7.1 -24.3°
Maximum altitude 21:01:29 57° 73° (ENE) 1,249 4.3 -25.2°
Enters shadow 21:02:26 53° 105° (ESE) 1,285 4.2 -25.3°
